| time (UTC) | temp F | wind direction | speed knots | gust knots | rain 1hr in | rain 24hr in | rain mn in | humidity % | barometer mb |
| 20260506135337 | 59 | 214 | 6.1 | 11.3 | 0.01 | 0.02 | 0.00 | 72 | 1007.2 |
| 20260506135036 | 59 | 209 | 7.0 | 11.3 | 0.01 | 0.02 | 0.00 | 71 | 1007.3 |
| 20260506134735 | 59 | 211 | 6.1 | 11.3 | 0.01 | 0.02 | 0.00 | 71 | 1007.2 |
| 20260506134434 | 60 | 223 | 4.3 | 10.4 | 0.01 | 0.02 | 0.00 | 71 | 1007.2 |
| 20260506134133 | 60 | 223 | 2.6 | 10.4 | 0.00 | 0.01 | 0.00 | 72 | 1007.2 |
| 20260506133832 | 59 | 219 | 5.2 | 10.4 | 0.00 | 0.01 | 0.00 | 70 | 1007.2 |
| 20260506133531 | 60 | 167 | 3.5 | 11.3 | 0.00 | 0.01 | 0.00 | 68 | 1007.2 |
| 20260506133230 | 60 | 96 | 2.6 | 11.3 | 0.00 | 0.01 | 0.00 | 67 | 1007.0 |
| 20260506132929 | 61 | 200 | 5.2 | 11.3 | 0.00 | 0.01 | 0.00 | 66 | 1007.1 |
| 20260506132628 | 61 | 132 | 3.5 | 7.0 | 0.00 | 0.01 | 0.00 | 63 | 1007.0 |
| 20260506132328 | 61 | 218 | 3.5 | 6.1 | 0.00 | 0.01 | 0.00 | 64 | 1007.0 |
| 20260506132027 | 61 | 245 | 1.7 | 6.1 | 0.00 | 0.01 | 0.00 | 60 | 1007.0 |
| 20260506131726 | 60 | 292 | 1.7 | 6.1 | 0.00 | 0.01 | 0.00 | 60 | 1007.0 |
| 20260506131425 | 60 | 313 | 1.7 | 6.1 | 0.00 | 0.01 | 0.00 | 57 | 1006.9 |
| 20260506131124 | 61 | 311 | 3.5 | 6.1 | 0.00 | 0.01 | 0.00 | 58 | 1006.8 |
| 20260506130823 | 61 | 313 | 2.6 | 6.1 | 0.00 | 0.01 | 0.00 | 56 | 1006.6 |
| 20260506130522 | 61 | 307 | 3.5 | 6.1 | 0.00 | 0.01 | 0.00 | 56 | 1006.6 |
| 20260506130221 | 61 | 311 | 3.5 | 5.2 | 0.00 | 0.01 | 0.00 | 56 | 1006.6 |
| 20260506125920 | 62 | 311 | 2.6 | 5.2 | 0.00 | 0.00 | 0.00 | 55 | 1006.6 |
| 20260506125620 | 62 | 7 | 2.6 | 4.3 | 0.00 | 0.00 | 0.00 | 54 | 1006.5 |
| 20260506125319 | 62 | 51 | 2.6 | 5.2 | 0.00 | 0.00 | 0.00 | 53 | 1006.5 |
| 20260506125018 | 62 | 18 | 1.7 | 6.1 | 0.00 | 0.00 | 0.00 | 53 | 1006.5 |
| 20260506124717 | 62 | 39 | 3.5 | 7.0 | 0.00 | 0.00 | 0.00 | 52 | 1006.4 |
| 20260506124416 | 62 | 63 | 3.5 | 7.0 | 0.00 | 0.00 | 0.00 | 52 | 1006.5 |
| 20260506124115 | 63 | 67 | 3.5 | 7.0 | 0.00 | 0.00 | 0.00 | 51 | 1006.6 |
| 20260506123814 | 63 | 23 | 1.7 | 5.2 | 0.00 | 0.00 | 0.00 | 50 | 1006.6 |
| 20260506123513 | 63 | 9 | 0.9 | 5.2 | 0.00 | 0.00 | 0.00 | 50 | 1006.7 |
| 20260506123213 | 64 | 81 | 3.5 | 5.2 | 0.00 | 0.00 | 0.00 | 49 | 1006.7 |
| 20260506122912 | 64 | 76 | 2.6 | 6.1 | 0.00 | 0.00 | 0.00 | 51 | 1006.6 |
| 20260506122611 | 64 | 46 | 1.7 | 7.8 | 0.00 | 0.00 | 0.00 | 51 | 1006.7 |
| 20260506122310 | 64 | 87 | 3.5 | 7.8 | 0.00 | 0.00 | 0.00 | 51 | 1006.7 |
| 20260506122009 | 63 | 85 | 3.5 | 7.8 | 0.00 | 0.00 | 0.00 | 52 | 1006.8 |
| 20260506121708 | 63 | 6 | 1.7 | 5.2 | 0.00 | 0.00 | 0.00 | 52 | 1006.8 |
| 20260506121407 | 63 | 26 | 2.6 | 5.2 | 0.00 | 0.00 | 0.00 | 51 | 1006.6 |
| 20260506121106 | 63 | 25 | 1.7 | 8.7 | 0.00 | 0.00 | 0.00 | 51 | 1006.6 |
| 20260506120806 | 63 | 0 | 2.6 | 8.7 | 0.00 | 0.00 | 0.00 | 51 | 1006.7 |
| 20260506120505 | 63 | 30 | 4.3 | 8.7 | 0.00 | 0.00 | 0.00 | 52 | 1006.7 |
| 20260506120204 | 63 | 50 | 3.5 | 8.7 | 0.00 | 0.00 | 0.00 | 52 | 1006.5 |
| 20260506115903 | 63 | 61 | 4.3 | 8.7 | 0.00 | 0.02 | 0.00 | 51 | 1006.6 |
| 20260506115602 | 64 | 80 | 2.6 | 7.0 | 0.00 | 0.02 | 0.00 | 52 | 1006.6 |
| 20260506115301 | 64 | 48 | 3.5 | 7.0 | 0.00 | 0.02 | 0.00 | 50 | 1006.7 |
| 20260506115000 | 64 | 94 | 4.3 | 7.0 | 0.00 | 0.02 | 0.00 | 51 | 1006.8 |
| 20260506114659 | 64 | 68 | 2.6 | 5.2 | 0.00 | 0.02 | 0.00 | 50 | 1006.9 |
| 20260506114358 | 64 | 98 | 2.6 | 6.1 | 0.00 | 0.02 | 0.00 | 50 | 1006.8 |
| 20260506114057 | 65 | 70 | 2.6 | 7.8 | 0.00 | 0.02 | 0.00 | 49 | 1006.8 |
| 20260506113756 | 64 | 95 | 2.6 | 8.7 | 0.00 | 0.02 | 0.00 | 50 | 1006.9 |
| 20260506113455 | 63 | 73 | 2.6 | 8.7 | 0.00 | 0.02 | 0.00 | 51 | 1006.8 |
| 20260506113155 | 63 | 61 | 5.2 | 8.7 | 0.00 | 0.02 | 0.00 | 50 | 1006.9 |
| 20260506112854 | 64 | 80 | 4.3 | 7.8 | 0.00 | 0.02 | 0.00 | 50 | 1006.8 |
| 20260506112553 | 64 | 73 | 4.3 | 15.6 | 0.00 | 0.02 | 0.00 | 49 | 1006.9 |
| 20260506112252 | 64 | 101 | 2.6 | 15.6 | 0.00 | 0.02 | 0.00 | 51 | 1007.0 |
| 20260506111951 | 63 | 65 | 6.1 | 15.6 | 0.00 | 0.02 | 0.00 | 50 | 1006.8 |
| 20260506111650 | 63 | 80 | 4.3 | 8.7 | 0.00 | 0.02 | 0.00 | 49 | 1006.9 |
| 20260506111349 | 63 | 58 | 2.6 | 7.0 | 0.00 | 0.02 | 0.00 | 50 | 1006.9 |
| 20260506111048 | 63 | 54 | 3.5 | 7.8 | 0.00 | 0.02 | 0.00 | 48 | 1007.0 |
| 20260506110747 | 63 | 20 | 4.3 | 10.4 | 0.00 | 0.02 | 0.00 | 48 | 1007.1 |
| 20260506110447 | 63 | 38 | 4.3 | 10.4 | 0.00 | 0.02 | 0.00 | 49 | 1007.1 |
| 20260506110146 | 63 | 54 | 6.1 | 10.4 | 0.00 | 0.02 | 0.00 | 49 | 1007.0 |
| 20260506105845 | 65 | 53 | 6.1 | 9.6 | 0.00 | 0.02 | 0.00 | 46 | 1007.2 |
| 20260506105544 | 66 | 28 | 3.5 | 8.7 | 0.00 | 0.02 | 0.00 | 48 | 1007.2 |
| 20260506105243 | 64 | 163 | 2.6 | 8.7 | 0.00 | 0.02 | 0.00 | 49 | 1007.3 |
| 20260506104942 | 64 | 64 | 4.3 | 8.7 | 0.00 | 0.02 | 0.00 | 49 | 1007.4 |
| 20260506104641 | 64 | 56 | 4.3 | 7.0 | 0.00 | 0.02 | 0.00 | 51 | 1007.4 |
| 20260506104340 | 64 | 255 | 2.6 | 5.2 | 0.00 | 0.02 | 0.00 | 50 | 1007.4 |
| 20260506104040 | 63 | 53 | 1.7 | 7.0 | 0.00 | 0.02 | 0.00 | 49 | 1007.6 |
| 20260506103739 | 64 | 78 | 3.5 | 7.0 | 0.00 | 0.02 | 0.00 | 51 | 1007.6 |
| 20260506103438 | 63 | 9 | 3.5 | 7.0 | 0.00 | 0.02 | 0.00 | 52 | 1007.4 |
| 20260506103137 | 64 | 333 | 2.6 | 7.0 | 0.00 | 0.02 | 0.00 | 51 | 1007.6 |
| 20260506102836 | 63 | 319 | 3.5 | 7.0 | 0.00 | 0.02 | 0.00 | 53 | 1007.6 |
| 20260506102535 | 63 | 326 | 3.5 | 7.8 | 0.00 | 0.02 | 0.00 | 52 | 1007.6 |
| 20260506102234 | 63 | 302 | 1.7 | 7.8 | 0.00 | 0.02 | 0.00 | 52 | 1007.6 |
| 20260506101933 | 62 | 334 | 4.3 | 7.8 | 0.00 | 0.02 | 0.00 | 52 | 1007.6 |
| 20260506101633 | 63 | 20 | 3.5 | 7.8 | 0.00 | 0.02 | 0.00 | 52 | 1007.7 |
| 20260506101332 | 62 | 356 | 2.6 | 5.2 | 0.00 | 0.02 | 0.00 | 54 | 1007.7 |
| 20260506101031 | 62 | 323 | 2.6 | 7.0 | 0.00 | 0.02 | 0.00 | 51 | 1007.8 |
| 20260506100128 | 62 | 67 | 4.3 | 7.0 | 0.00 | 0.02 | 0.00 | 52 | 1007.8 |
| 20260506095828 | 62 | 34 | 2.6 | 6.1 | 0.00 | 0.02 | 0.00 | 54 | 1007.9 |
| 20260506095527 | 62 | 75 | 3.5 | 7.8 | 0.00 | 0.02 | 0.00 | 52 | 1007.9 |
| 20260506095226 | 62 | 77 | 1.7 | 7.8 | 0.00 | 0.02 | 0.00 | 53 | 1007.8 |
| 20260506094925 | 61 | 53 | 3.5 | 7.8 | 0.00 | 0.02 | 0.00 | 52 | 1007.8 |
| 20260506094624 | 62 | 83 | 0.9 | 5.2 | 0.00 | 0.02 | 0.00 | 56 | 1008.0 |
| 20260506094323 | 62 | 328 | 2.6 | 7.8 | 0.00 | 0.02 | 0.00 | 53 | 1007.8 |
| 20260506094022 | 63 | 46 | 3.5 | 7.8 | 0.00 | 0.02 | 0.00 | 51 | 1007.9 |
| 20260506093721 | 63 | 85 | 4.3 | 7.8 | 0.00 | 0.02 | 0.00 | 53 | 1007.7 |
| 20260506093421 | 62 | 84 | 1.7 | 5.2 | 0.00 | 0.02 | 0.00 | 53 | 1007.8 |
| 20260506093119 | 61 | 99 | 3.5 | 5.2 | 0.00 | 0.02 | 0.00 | 54 | 1007.8 |
| 20260506092819 | 61 | 349 | 1.7 | 5.2 | 0.00 | 0.02 | 0.00 | 54 | 1007.8 |
| 20260506092517 | 61 | 17 | 2.6 | 5.2 | 0.00 | 0.02 | 0.00 | 53 | 1007.8 |
| 20260506092216 | 61 | 14 | 2.6 | 5.2 | 0.00 | 0.02 | 0.00 | 54 | 1008.0 |
| 20260506091915 | 61 | 311 | 0.9 | 3.5 | 0.00 | 0.02 | 0.00 | 56 | 1008.0 |
| 20260506091614 | 61 | 308 | 0.9 | 4.3 | 0.00 | 0.02 | 0.00 | 56 | 1008.0 |
| 20260506091314 | 61 | 98 | 1.7 | 4.3 | 0.00 | 0.02 | 0.00 | 56 | 1008.0 |
| 20260506091013 | 60 | 100 | 2.6 | 4.3 | 0.00 | 0.02 | 0.00 | 57 | 1007.9 |
| 20260506090712 | 59 | 74 | 2.6 | 6.1 | 0.00 | 0.02 | 0.00 | 58 | 1008.0 |
| 20260506090411 | 59 | 336 | 0.9 | 6.1 | 0.00 | 0.02 | 0.00 | 57 | 1007.9 |
| 20260506090110 | 59 | 41 | 3.5 | 6.1 | 0.00 | 0.02 | 0.00 | 58 | 1007.7 |
| 20260506085809 | 59 | 37 | 2.6 | 5.2 | 0.00 | 0.02 | 0.00 | 58 | 1007.7 |
| 20260506085508 | 59 | 23 | 2.6 | 4.3 | 0.00 | 0.02 | 0.00 | 57 | 1007.8 |
| 20260506085208 | 59 | 356 | 1.7 | 4.3 | 0.00 | 0.02 | 0.00 | 59 | 1007.9 |
| 20260506084906 | 59 | 25 | 2.6 | 4.3 | 0.00 | 0.02 | 0.00 | 58 | 1008.1 |
| 20260506084606 | 59 | 265 | 1.7 | 4.3 | 0.00 | 0.02 | 0.00 | 58 | 1008.0 |
| 20260506084305 | 59 | 314 | 2.6 | 4.3 | 0.00 | 0.02 | 0.00 | 59 | 1008.0 |
| 20260506084004 | 59 | 293 | 1.7 | 5.2 | 0.00 | 0.02 | 0.00 | 59 | 1008.0 |
| 20260506083703 | 59 | 287 | 0.9 | 5.2 | 0.00 | 0.02 | 0.00 | 58 | 1008.0 |
| 20260506083402 | 59 | 311 | 2.6 | 5.2 | 0.00 | 0.02 | 0.00 | 59 | 1008.1 |
| 20260506083101 | 59 | 260 | 1.7 | 5.2 | 0.00 | 0.02 | 0.00 | 59 | 1008.1 |
| 20260506082800 | 60 | 253 | 1.7 | 4.3 | 0.00 | 0.02 | 0.00 | 57 | 1008.2 |
| 20260506082500 | 60 | 263 | 3.5 | 4.3 | 0.00 | 0.02 | 0.00 | 57 | 1008.2 |
| 20260506082159 | 59 | 18 | 0.9 | 3.5 | 0.00 | 0.02 | 0.00 | 58 | 1008.0 |
| 20260506081858 | 59 | 330 | 0.9 | 3.5 | 0.00 | 0.02 | 0.00 | 58 | 1008.0 |
| 20260506081256 | 59 | 299 | 1.7 | 4.3 | 0.00 | 0.02 | 0.00 | 58 | 1007.9 |
| 20260506080955 | 58 | 304 | 1.7 | 4.3 | 0.00 | 0.02 | 0.00 | 59 | 1008.0 |
| 20260506080353 | 58 | 239 | 1.7 | 3.5 | 0.00 | 0.02 | 0.00 | 61 | 1008.0 |
| 20260506073344 | 58 | 25 | 0.9 | 2.6 | 0.00 | 0.02 | 0.00 | 61 | 1008.1 |
| 20260506073043 | 57 | 331 | 0.9 | 3.5 | 0.00 | 0.02 | 0.00 | 61 | 1008.1 |
| 20260506072742 | 57 | 316 | 0.9 | 3.5 | 0.00 | 0.02 | 0.00 | 62 | 1008.2 |
| 20260506072441 | 57 | 293 | 0.9 | 4.3 | 0.00 | 0.02 | 0.00 | 63 | 1008.1 |
| 20260506072141 | 58 | 272 | 1.7 | 4.3 | 0.00 | 0.02 | 0.00 | 63 | 1008.3 |
| 20260506071840 | 57 | 242 | 2.6 | 4.3 | 0.00 | 0.02 | 0.00 | 62 | 1008.3 |
| 20260506071539 | 58 | 233 | 3.5 | 5.2 | 0.00 | 0.02 | 0.00 | 64 | 1008.2 |
| 20260506071238 | 57 | 231 | 2.6 | 5.2 | 0.00 | 0.02 | 0.00 | 64 | 1008.4 |
| 20260506070937 | 57 | 222 | 2.6 | 5.2 | 0.00 | 0.02 | 0.00 | 65 | 1008.4 |
| 20260506070636 | 57 | 229 | 3.5 | 4.3 | 0.00 | 0.02 | 0.00 | 65 | 1008.4 |
| 20260506070335 | 57 | 226 | 2.6 | 3.5 | 0.00 | 0.02 | 0.00 | 66 | 1008.4 |
| 20260506062424 | 56 | 213 | 2.6 | 4.3 | 0.00 | 0.02 | 0.00 | 68 | 1008.4 |
| 20260506062123 | 56 | 221 | 1.7 | 4.3 | 0.00 | 0.02 | 0.00 | 67 | 1008.4 |
| 20260506061822 | 56 | 230 | 1.7 | 4.3 | 0.00 | 0.02 | 0.00 | 68 | 1008.3 |
| 20260506061521 | 56 | 231 | 2.6 | 5.2 | 0.00 | 0.02 | 0.00 | 69 | 1008.4 |
| 20260506061221 | 56 | 196 | 2.6 | 5.2 | 0.00 | 0.02 | 0.00 | 69 | 1008.4 |
| 20260506060920 | 55 | 211 | 2.6 | 5.2 | 0.00 | 0.02 | 0.00 | 70 | 1008.3 |
| 20260506060619 | 55 | 217 | 3.5 | 5.2 | 0.00 | 0.02 | 0.00 | 71 | 1008.4 |
| 20260506060318 | 55 | 204 | 2.6 | 5.2 | 0.00 | 0.02 | 0.00 | 71 | 1008.3 |
| 20260506051202 | 50 | 144 | 1.7 | 2.6 | 0.00 | 0.02 | 0.00 | 76 | 1008.5 |
| 20260506050901 | 50 | 136 | 0.9 | 3.5 | 0.00 | 0.02 | 0.00 | 76 | 1008.6 |
| 20260506050600 | 50 | 137 | 1.7 | 3.5 | 0.00 | 0.02 | 0.00 | 76 | 1008.7 |
| 20260506050259 | 50 | 161 | 0.9 | 3.5 | 0.00 | 0.02 | 0.00 | 76 | 1008.7 |
| 20260506045056 | 50 | 158 | 1.7 | 2.6 | 0.01 | 0.02 | 0.00 | 77 | 1008.7 |
| 20260506044755 | 50 | 172 | 0.9 | 1.7 | 0.01 | 0.02 | 0.00 | 77 | 1008.7 |
| 20260506044454 | 50 | 154 | 0.0 | 1.7 | 0.01 | 0.02 | 0.00 | 77 | 1008.7 |
| 20260506044154 | 50 | 136 | 0.9 | 1.7 | 0.01 | 0.02 | 0.00 | 76 | 1008.8 |
| 20260506043853 | 50 | 94 | 0.9 | 1.7 | 0.01 | 0.02 | 0.00 | 77 | 1008.7 |
| 20260506043552 | 49 | 115 | 1.7 | 1.7 | 0.01 | 0.02 | 0.00 | 77 | 1008.8 |
| 20260506043251 | 49 | 143 | 0.9 | 1.7 | 0.01 | 0.02 | 0.00 | 77 | 1008.8 |
| 20260506042950 | 49 | 239 | 0.0 | 1.7 | 0.01 | 0.02 | 0.00 | 77 | 1008.8 |
| 20260506042649 | 49 | 238 | 0.0 | 1.7 | 0.01 | 0.02 | 0.00 | 77 | 1008.8 |
| 20260506042348 | 49 | 174 | 0.9 | 1.7 | 0.01 | 0.02 | 0.00 | 77 | 1008.8 |
| 20260506042047 | 50 | 179 | 0.0 | 0.9 | 0.01 | 0.02 | 0.00 | 77 | 1008.8 |
| 20260506041746 | 50 | 259 | 0.0 | 0.9 | 0.01 | 0.02 | 0.00 | 76 | 1008.8 |
| 20260506041445 | 50 | 225 | 0.9 | 0.9 | 0.01 | 0.02 | 0.00 | 76 | 1008.9 |
| 20260506041145 | 50 | 249 | 0.0 | 0.9 | 0.01 | 0.02 | 0.00 | 77 | 1008.9 |
| 20260506040844 | 50 | 282 | 0.0 | 1.7 | 0.01 | 0.02 | 0.00 | 77 | 1008.8 |
| 20260506040543 | 49 | 9 | 0.0 | 1.7 | 0.01 | 0.02 | 0.00 | 78 | 1008.8 |
| 20260506040242 | 49 | 43 | 0.9 | 1.7 | 0.00 | 0.01 | 0.00 | 78 | 1008.8 |
| 20260506035941 | 49 | 44 | 0.9 | 1.7 | 0.00 | 0.01 | 0.00 | 77 | 1008.8 |
| 20260506035640 | 49 | 75 | 0.9 | 1.7 | 0.00 | 0.01 | 0.00 | 78 | 1008.8 |
| 20260506035339 | 49 | 46 | 0.9 | 1.7 | 0.00 | 0.01 | 0.00 | 77 | 1008.8 |
| 20260506035038 | 49 | 38 | 0.9 | 0.9 | 0.00 | 0.01 | 0.00 | 77 | 1009.0 |
| 20260506034737 | 50 | 31 | 0.9 | 0.9 | 0.00 | 0.01 | 0.00 | 77 | 1008.9 |
| 20260506034437 | 50 | 17 | 0.9 | 1.7 | 0.00 | 0.01 | 0.00 | 77 | 1009.0 |
| 20260506034136 | 50 | 131 | 0.9 | 3.5 | 0.00 | 0.01 | 0.00 | 76 | 1009.1 |
| 20260506033835 | 50 | 151 | 0.9 | 3.5 | 0.00 | 0.01 | 0.00 | 76 | 1009.3 |
| 20260506033534 | 50 | 193 | 1.7 | 4.3 | 0.00 | 0.01 | 0.00 | 76 | 1009.3 |
| 20260506033233 | 50 | 191 | 1.7 | 4.3 | 0.00 | 0.01 | 0.00 | 76 | 1009.3 |
| 20260506032932 | 50 | 202 | 2.6 | 4.3 | 0.00 | 0.01 | 0.00 | 76 | 1009.3 |
| 20260506032631 | 50 | 225 | 2.6 | 4.3 | 0.00 | 0.01 | 0.00 | 76 | 1009.2 |
| 20260506031729 | 50 | 225 | 4.3 | 7.0 | 0.00 | 0.01 | 0.00 | 76 | 1009.4 |
| 20260506031428 | 50 | 224 | 5.2 | 7.0 | 0.00 | 0.01 | 0.00 | 76 | 1009.3 |
| 20260506031127 | 50 | 223 | 6.1 | 7.0 | 0.00 | 0.01 | 0.00 | 76 | 1009.4 |
| 20260506030826 | 50 | 224 | 6.1 | 7.0 | 0.00 | 0.01 | 0.00 | 76 | 1009.4 |
| 20260506030525 | 50 | 222 | 5.2 | 7.0 | 0.00 | 0.01 | 0.00 | 76 | 1009.4 |
| 20260506030224 | 50 | 225 | 4.3 | 7.8 | 0.00 | 0.01 | 0.00 | 76 | 1009.4 |
| 20260506025923 | 50 | 225 | 5.2 | 8.7 | 0.00 | 0.01 | 0.00 | 76 | 1009.4 |
| 20260506025623 | 50 | 222 | 7.0 | 8.7 | 0.00 | 0.01 | 0.00 | 75 | 1009.5 |
| 20260506025322 | 50 | 212 | 7.0 | 8.7 | 0.00 | 0.01 | 0.00 | 75 | 1009.5 |
| 20260506025021 | 50 | 220 | 5.2 | 8.7 | 0.00 | 0.01 | 0.00 | 76 | 1009.5 |
| 20260506024720 | 50 | 224 | 7.0 | 8.7 | 0.00 | 0.01 | 0.00 | 76 | 1009.5 |
| 20260506024419 | 50 | 225 | 7.0 | 7.8 | 0.00 | 0.01 | 0.00 | 76 | 1009.5 |
| 20260506024118 | 50 | 225 | 5.2 | 7.8 | 0.00 | 0.01 | 0.00 | 76 | 1009.5 |
| 20260506023818 | 50 | 224 | 5.2 | 7.8 | 0.00 | 0.01 | 0.00 | 76 | 1009.5 |
| 20260506023517 | 50 | 224 | 6.1 | 7.8 | 0.00 | 0.01 | 0.00 | 76 | 1009.5 |
| 20260506023216 | 50 | 225 | 6.1 | 7.0 | 0.00 | 0.01 | 0.00 | 76 | 1009.6 |
| 20260506022614 | 50 | 224 | 6.1 | 8.7 | 0.00 | 0.01 | 0.00 | 76 | 1009.7 |
| 20260506022313 | 50 | 224 | 6.1 | 8.7 | 0.00 | 0.01 | 0.00 | 75 | 1009.8 |
| 20260506022012 | 50 | 221 | 6.1 | 8.7 | 0.00 | 0.01 | 0.00 | 75 | 1009.7 |
| 20260506021711 | 50 | 209 | 7.0 | 8.7 | 0.00 | 0.01 | 0.00 | 75 | 1009.6 |
| 20260506021410 | 50 | 211 | 7.0 | 8.7 | 0.00 | 0.01 | 0.00 | 75 | 1009.5 |
| 20260506021110 | 50 | 222 | 4.3 | 6.1 | 0.00 | 0.01 | 0.00 | 76 | 1009.5 |
| 20260506020809 | 49 | 225 | 4.3 | 6.1 | 0.00 | 0.01 | 0.00 | 76 | 1009.5 |
| 20260506020508 | 50 | 225 | 5.2 | 7.0 | 0.00 | 0.01 | 0.00 | 76 | 1009.5 |
| 20260506020207 | 50 | 225 | 5.2 | 7.0 | 0.00 | 0.01 | 0.00 | 76 | 1009.5 |
| 20260506015906 | 50 | 225 | 5.2 | 7.0 | 0.00 | 0.01 | 0.00 | 76 | 1009.6 |
| 20260506015605 | 49 | 223 | 5.2 | 7.0 | 0.00 | 0.01 | 0.00 | 76 | 1009.6 |
| 20260506015306 | 50 | 225 | 6.1 | 7.0 | 0.00 | 0.01 | 0.00 | 75 | 1009.7 |
| 20260506015003 | 50 | 225 | 6.1 | 7.0 | 0.00 | 0.01 | 0.00 | 75 | 1009.8 |
| 20260506014702 | 50 | 223 | 6.1 | 7.0 | 0.00 | 0.01 | 0.00 | 75 | 1009.7 |
| 20260506014401 | 50 | 224 | 5.2 | 7.0 | 0.00 | 0.01 | 0.00 | 75 | 1009.6 |
| 20260506014100 | 50 | 224 | 5.2 | 7.8 | 0.00 | 0.01 | 0.00 | 75 | 1009.6 |
| 20260506013800 | 50 | 224 | 6.1 | 7.8 | 0.00 | 0.01 | 0.00 | 75 | 1009.6 |
| 20260506013459 | 50 | 224 | 6.1 | 7.8 | 0.00 | 0.01 | 0.00 | 75 | 1009.6 |
| 20260506013158 | 50 | 223 | 5.2 | 6.1 | 0.00 | 0.01 | 0.00 | 75 | 1009.6 |
| 20260506012857 | 50 | 225 | 5.2 | 6.1 | 0.00 | 0.01 | 0.00 | 75 | 1009.7 |
| 20260506012556 | 50 | 225 | 5.2 | 6.1 | 0.00 | 0.01 | 0.00 | 75 | 1009.7 |
| 20260506012255 | 50 | 225 | 6.1 | 7.8 | 0.00 | 0.01 | 0.00 | 75 | 1009.7 |
| 20260506011954 | 50 | 225 | 5.2 | 7.8 | 0.00 | 0.01 | 0.00 | 75 | 1009.8 |
| 20260506011653 | 50 | 225 | 5.2 | 7.8 | 0.00 | 0.01 | 0.00 | 75 | 1009.8 |
| 20260506011352 | 50 | 217 | 5.2 | 7.0 | 0.00 | 0.01 | 0.00 | 74 | 1009.9 |
| 20260506011052 | 50 | 214 | 6.1 | 7.0 | 0.00 | 0.01 | 0.00 | 74 | 1010.0 |
| 20260506010751 | 50 | 215 | 5.2 | 6.1 | 0.00 | 0.01 | 0.00 | 75 | 1010.0 |
| 20260506010450 | 50 | 210 | 4.3 | 6.1 | 0.00 | 0.01 | 0.00 | 74 | 1009.9 |
| 20260506010149 | 50 | 216 | 2.6 | 5.2 | 0.00 | 0.01 | 0.00 | 74 | 1009.9 |
| 20260506005848 | 50 | 206 | 2.6 | 5.2 | 0.00 | 0.01 | 0.00 | 74 | 1010.0 |
| 20260506005547 | 50 | 173 | 1.7 | 4.3 | 0.00 | 0.01 | 0.00 | 75 | 1009.9 |
| 20260506005246 | 50 | 172 | 2.6 | 4.3 | 0.00 | 0.01 | 0.00 | 76 | 1009.9 |
| 20260506004946 | 50 | 118 | 0.9 | 1.7 | 0.00 | 0.01 | 0.00 | 76 | 1009.9 |
| 20260506004645 | 50 | 90 | 0.0 | 0.9 | 0.00 | 0.01 | 0.00 | 77 | 1009.9 |
| 20260506004344 | 50 | 82 | 0.9 | 2.6 | 0.00 | 0.01 | 0.00 | 77 | 1009.9 |
| 20260506004043 | 50 | 182 | 0.0 | 2.6 | 0.00 | 0.01 | 0.00 | 77 | 1009.9 |
| 20260506003742 | 50 | 51 | 0.9 | 2.6 | 0.00 | 0.01 | 0.00 | 78 | 1009.9 |
| 20260506003441 | 50 | 81 | 1.7 | 1.7 | 0.00 | 0.01 | 0.00 | 77 | 1010.0 |
| 20260506003140 | 51 | 90 | 1.7 | 4.3 | 0.00 | 0.01 | 0.00 | 76 | 1009.9 |
| 20260506002839 | 51 | 95 | 0.9 | 4.3 | 0.00 | 0.01 | 0.00 | 75 | 1009.9 |
| 20260506002539 | 51 | 152 | 0.9 | 4.3 | 0.00 | 0.01 | 0.00 | 75 | 1010.1 |
| 20260506002238 | 51 | 187 | 2.6 | 4.3 | 0.00 | 0.01 | 0.00 | 74 | 1010.0 |
| 20260506001937 | 51 | 211 | 2.6 | 5.2 | 0.00 | 0.01 | 0.00 | 75 | 1009.9 |
| 20260506001636 | 51 | 221 | 3.5 | 6.1 | 0.00 | 0.01 | 0.00 | 75 | 1009.9 |
| 20260506001335 | 51 | 223 | 4.3 | 6.1 | 0.00 | 0.01 | 0.00 | 75 | 1010.0 |
| 20260506001034 | 52 | 224 | 5.2 | 6.1 | 0.00 | 0.01 | 0.00 | 75 | 1010.0 |
| 20260506000733 | 52 | 225 | 5.2 | 6.1 | 0.00 | 0.01 | 0.00 | 75 | 1010.1 |
| 20260506000432 | 52 | 224 | 5.2 | 6.1 | 0.00 | 0.01 | 0.00 | 75 | 1010.2 |
| 20260506000131 | 52 | 223 | 5.2 | 6.1 | 0.00 | 0.01 | 0.00 | 75 | 1010.2 |
| 20260505235830 | 52 | 223 | 5.2 | 6.1 | 0.00 | 0.01 | 0.00 | 75 | 1010.2 |
| 20260505235530 | 52 | 216 | 6.1 | 6.1 | 0.00 | 0.01 | 0.00 | 75 | 1010.2 |
| 20260505235229 | 52 | 224 | 4.3 | 5.2 | 0.00 | 0.01 | 0.00 | 75 | 1010.2 |
| 20260505234928 | 52 | 225 | 4.3 | 6.1 | 0.00 | 0.01 | 0.00 | 75 | 1010.2 |
| 20260505234627 | 52 | 225 | 4.3 | 6.1 | 0.00 | 0.01 | 0.00 | 75 | 1010.3 |
| 20260505234326 | 52 | 223 | 5.2 | 6.1 | 0.00 | 0.01 | 0.00 | 76 | 1010.2 |
| 20260505234025 | 52 | 225 | 4.3 | 6.1 | 0.00 | 0.01 | 0.00 | 76 | 1010.2 |
| 20260505233724 | 52 | 225 | 4.3 | 6.1 | 0.00 | 0.01 | 0.00 | 75 | 1010.4 |
| 20260505233424 | 53 | 223 | 4.3 | 6.1 | 0.00 | 0.01 | 0.00 | 75 | 1010.4 |
| 20260505233123 | 53 | 225 | 4.3 | 7.0 | 0.00 | 0.01 | 0.00 | 75 | 1010.3 |
| 20260505232822 | 53 | 223 | 5.2 | 8.7 | 0.00 | 0.01 | 0.00 | 74 | 1010.4 |
| 20260505232521 | 53 | 218 | 4.3 | 8.7 | 0.00 | 0.01 | 0.00 | 74 | 1010.4 |
| 20260505232220 | 53 | 219 | 7.0 | 8.7 | 0.00 | 0.01 | 0.00 | 74 | 1010.4 |
| 20260505231919 | 53 | 218 | 6.1 | 7.8 | 0.00 | 0.01 | 0.00 | 74 | 1010.4 |
| 20260505231618 | 53 | 225 | 7.0 | 7.8 | 0.00 | 0.01 | 0.00 | 75 | 1010.4 |
| 20260505231317 | 53 | 225 | 7.0 | 7.8 | 0.00 | 0.01 | 0.00 | 74 | 1010.4 |
| 20260505231016 | 53 | 225 | 7.0 | 7.8 | 0.00 | 0.01 | 0.00 | 75 | 1010.3 |
| 20260505230716 | 53 | 225 | 6.1 | 7.8 | 0.00 | 0.01 | 0.00 | 75 | 1010.4 |
| 20260505230415 | 53 | 225 | 7.0 | 7.8 | 0.00 | 0.01 | 0.00 | 75 | 1010.2 |
| 20260505230114 | 53 | 225 | 6.1 | 8.7 | 0.00 | 0.01 | 0.00 | 74 | 1010.3 |
| 20260505225813 | 53 | 225 | 5.2 | 8.7 | 0.00 | 0.01 | 0.00 | 75 | 1010.3 |
| 20260505225512 | 53 | 226 | 5.2 | 8.7 | 0.00 | 0.01 | 0.00 | 75 | 1010.5 |
| 20260505225211 | 53 | 225 | 5.2 | 7.0 | 0.00 | 0.01 | 0.00 | 75 | 1010.5 |
| 20260505224910 | 53 | 230 | 5.2 | 7.0 | 0.00 | 0.01 | 0.00 | 75 | 1010.6 |
| 20260505224609 | 53 | 225 | 6.1 | 7.0 | 0.00 | 0.01 | 0.00 | 75 | 1010.6 |
| 20260505224308 | 53 | 225 | 6.1 | 7.0 | 0.00 | 0.01 | 0.00 | 75 | 1010.6 |
| 20260505224008 | 54 | 225 | 6.1 | 7.0 | 0.00 | 0.01 | 0.00 | 75 | 1010.6 |
| 20260505223707 | 54 | 225 | 4.3 | 7.0 | 0.00 | 0.01 | 0.00 | 75 | 1010.6 |
| 20260505223406 | 54 | 210 | 4.3 | 7.8 | 0.00 | 0.01 | 0.00 | 74 | 1010.6 |
| 20260505223105 | 54 | 208 | 5.2 | 7.8 | 0.00 | 0.01 | 0.00 | 74 | 1010.6 |
| 20260505222804 | 54 | 212 | 5.2 | 8.7 | 0.00 | 0.01 | 0.00 | 74 | 1010.6 |
| 20260505222503 | 54 | 210 | 6.1 | 8.7 | 0.00 | 0.01 | 0.00 | 74 | 1010.5 |
| 20260505222202 | 54 | 219 | 6.1 | 8.7 | 0.00 | 0.01 | 0.00 | 74 | 1010.5 |
| 20260505221901 | 54 | 219 | 4.3 | 7.0 | 0.00 | 0.01 | 0.00 | 74 | 1010.4 |
| 20260505221302 | 54 | 221 | 3.5 | 9.6 | 0.00 | 0.01 | 0.00 | 74 | 1010.5 |
| 20260505220958 | 54 | 207 | 7.0 | 9.6 | 0.00 | 0.01 | 0.00 | 74 | 1010.5 |
| 20260505220657 | 54 | 212 | 5.2 | 8.7 | 0.00 | 0.01 | 0.00 | 75 | 1010.5 |
| 20260505220357 | 54 | 215 | 5.2 | 8.7 | 0.00 | 0.01 | 0.00 | 76 | 1010.6 |
| 20260505220056 | 54 | 222 | 7.0 | 8.7 | 0.00 | 0.01 | 0.00 | 76 | 1010.5 |
| 20260505215755 | 54 | 220 | 7.0 | 9.6 | 0.00 | 0.01 | 0.00 | 76 | 1010.4 |
| 20260505215454 | 54 | 219 | 7.0 | 9.6 | 0.00 | 0.01 | 0.00 | 77 | 1010.5 |
| 20260505215153 | 54 | 225 | 7.8 | 9.6 | 0.00 | 0.01 | 0.00 | 77 | 1010.4 |
| 20260505214852 | 54 | 224 | 7.8 | 8.7 | 0.00 | 0.01 | 0.00 | 77 | 1010.4 |
| 20260505214552 | 54 | 225 | 7.0 | 10.4 | 0.00 | 0.01 | 0.00 | 77 | 1010.4 |
| 20260505214251 | 54 | 225 | 7.8 | 12.2 | 0.00 | 0.01 | 0.00 | 77 | 1010.5 |
| 20260505213950 | 54 | 225 | 8.7 | 12.2 | 0.00 | 0.01 | 0.00 | 77 | 1010.6 |
| 20260505213649 | 54 | 225 | 8.7 | 12.2 | 0.00 | 0.01 | 0.00 | 76 | 1010.6 |
| 20260505213348 | 54 | 221 | 9.6 | 11.3 | 0.00 | 0.01 | 0.00 | 77 | 1010.6 |
| 20260505213047 | 54 | 218 | 7.8 | 9.6 | 0.00 | 0.01 | 0.00 | 76 | 1010.5 |
| 20260505212746 | 54 | 225 | 7.0 | 9.6 | 0.00 | 0.01 | 0.00 | 76 | 1010.6 |
| 20260505212445 | 54 | 220 | 7.0 | 9.6 | 0.00 | 0.01 | 0.00 | 76 | 1010.4 |
| 20260505212145 | 55 | 225 | 6.1 | 7.0 | 0.00 | 0.01 | 0.00 | 75 | 1010.4 |
| 20260505211844 | 55 | 223 | 4.3 | 7.0 | 0.00 | 0.01 | 0.00 | 75 | 1010.3 |
| 20260505211543 | 55 | 235 | 4.3 | 7.0 | 0.00 | 0.01 | 0.00 | 75 | 1010.2 |
| 20260505211242 | 55 | 230 | 5.2 | 10.4 | 0.00 | 0.01 | 0.00 | 75 | 1010.4 |
| 20260505210941 | 55 | 223 | 5.2 | 12.2 | 0.00 | 0.01 | 0.00 | 75 | 1010.3 |
| 20260505210640 | 55 | 225 | 7.8 | 14.8 | 0.00 | 0.01 | 0.00 | 75 | 1010.3 |
| 20260505210339 | 55 | 228 | 8.7 | 14.8 | 0.00 | 0.01 | 0.00 | 74 | 1010.4 |
| 20260505210038 | 55 | 224 | 10.4 | 14.8 | 0.00 | 0.01 | 0.00 | 74 | 1010.4 |
| 20260505205737 | 56 | 241 | 6.1 | 13.0 | 0.00 | 0.01 | 0.00 | 72 | 1010.3 |
| 20260505205437 | 56 | 235 | 7.8 | 13.0 | 0.00 | 0.01 | 0.00 | 73 | 1010.4 |
| 20260505205136 | 56 | 227 | 8.7 | 13.0 | 0.00 | 0.01 | 0.00 | 72 | 1010.6 |
| 20260505204835 | 56 | 234 | 8.7 | 13.0 | 0.00 | 0.01 | 0.00 | 70 | 1010.5 |
| 20260505204533 | 56 | 237 | 9.6 | 14.8 | 0.00 | 0.01 | 0.00 | 70 | 1010.6 |
| 20260505204232 | 56 | 236 | 9.6 | 14.8 | 0.00 | 0.01 | 0.00 | 70 | 1010.6 |
| 20260505203931 | 56 | 247 | 8.7 | 15.6 | 0.00 | 0.01 | 0.00 | 70 | 1010.6 |
| 20260505203630 | 57 | 249 | 9.6 | 18.2 | 0.00 | 0.01 | 0.00 | 70 | 1010.5 |
| 20260505203329 | 57 | 255 | 10.4 | 18.2 | 0.00 | 0.01 | 0.00 | 70 | 1010.5 |
| 20260505203028 | 57 | 243 | 13.0 | 18.2 | 0.00 | 0.01 | 0.00 | 70 | 1010.5 |
| 20260505202728 | 57 | 245 | 10.4 | 23.5 | 0.00 | 0.01 | 0.00 | 71 | 1010.6 |
| 20260505202126 | 57 | 238 | 14.8 | 23.5 | 0.00 | 0.01 | 0.00 | 71 | 1010.5 |
| 20260505201825 | 58 | 234 | 14.8 | 23.5 | 0.00 | 0.01 | 0.00 | 72 | 1010.7 |
| 20260505201524 | 58 | 239 | 12.2 | 19.1 | 0.00 | 0.01 | 0.00 | 73 | 1010.5 |
| 20260505201223 | 58 | 233 | 12.2 | 19.1 | 0.00 | 0.01 | 0.00 | 73 | 1010.5 |
| 20260505200922 | 58 | 234 | 13.9 | 19.1 | 0.00 | 0.01 | 0.00 | 74 | 1010.4 |
| 20260505200621 | 58 | 230 | 12.2 | 16.5 | 0.00 | 0.01 | 0.00 | 73 | 1010.4 |
| 20260505200320 | 58 | 234 | 11.3 | 16.5 | 0.00 | 0.01 | 0.00 | 73 | 1010.4 |
| 20260505200019 | 58 | 244 | 10.4 | 16.5 | 0.00 | 0.01 | 0.00 | 73 | 1010.3 |
| 20260505195718 | 57 | 234 | 10.4 | 13.9 | 0.00 | 0.01 | 0.00 | 73 | 1010.3 |
| 20260505195418 | 57 | 234 | 9.6 | 13.0 | 0.00 | 0.01 | 0.00 | 73 | 1010.2 |
| 20260505195117 | 57 | 228 | 9.6 | 13.9 | 0.00 | 0.01 | 0.00 | 73 | 1010.1 |
| 20260505194816 | 57 | 227 | 8.7 | 13.9 | 0.00 | 0.01 | 0.00 | 74 | 1010.1 |
| 20260505194515 | 57 | 230 | 10.4 | 13.9 | 0.00 | 0.01 | 0.00 | 74 | 1010.1 |
| 20260505194214 | 57 | 225 | 7.0 | 9.6 | 0.00 | 0.01 | 0.00 | 75 | 1009.9 |
| 20260505193913 | 57 | 225 | 7.8 | 9.6 | 0.00 | 0.01 | 0.00 | 75 | 1009.9 |
| 20260505193612 | 57 | 226 | 7.0 | 8.7 | 0.00 | 0.01 | 0.00 | 74 | 1009.8 |
| 20260505193311 | 57 | 225 | 6.1 | 7.8 | 0.00 | 0.01 | 0.00 | 74 | 1009.7 |
| 20260505193010 | 57 | 233 | 5.2 | 7.0 | 0.00 | 0.01 | 0.00 | 74 | 1009.6 |
| 20260505192709 | 58 | 229 | 5.2 | 7.0 | 0.00 | 0.01 | 0.00 | 73 | 1009.5 |
| 20260505192409 | 57 | 229 | 5.2 | 7.0 | 0.00 | 0.01 | 0.00 | 74 | 1009.5 |
| 20260505192108 | 57 | 227 | 5.2 | 6.1 | 0.00 | 0.01 | 0.00 | 73 | 1009.4 |
| 20260505191807 | 58 | 228 | 4.3 | 6.1 | 0.00 | 0.01 | 0.00 | 73 | 1009.4 |
| 20260505191506 | 58 | 249 | 4.3 | 6.1 | 0.00 | 0.01 | 0.00 | 73 | 1009.3 |
| 20260505191205 | 58 | 242 | 4.3 | 6.1 | 0.00 | 0.01 | 0.00 | 73 | 1009.4 |
| 20260505190904 | 58 | 252 | 3.5 | 6.1 | 0.00 | 0.01 | 0.00 | 74 | 1009.3 |
| 20260505190603 | 58 | 254 | 3.5 | 6.1 | 0.00 | 0.01 | 0.00 | 74 | 1009.3 |
| 20260505190302 | 57 | 247 | 4.3 | 6.1 | 0.00 | 0.01 | 0.00 | 74 | 1009.3 |
| 20260505190001 | 57 | 261 | 3.5 | 6.1 | 0.00 | 0.01 | 0.00 | 74 | 1009.3 |
| 20260505185701 | 58 | 259 | 4.3 | 6.1 | 0.00 | 0.01 | 0.00 | 74 | 1009.3 |
| 20260505185400 | 58 | 267 | 3.5 | 6.1 | 0.00 | 0.01 | 0.00 | 73 | 1009.2 |
| 20260505185059 | 58 | 264 | 4.3 | 6.1 | 0.00 | 0.01 | 0.00 | 73 | 1009.1 |
| 20260505184758 | 58 | 259 | 4.3 | 6.1 | 0.00 | 0.01 | 0.00 | 73 | 1009.2 |
| 20260505184457 | 58 | 270 | 4.3 | 6.1 | 0.00 | 0.01 | 0.00 | 72 | 1009.1 |
| 20260505184156 | 58 | 260 | 4.3 | 6.1 | 0.00 | 0.01 | 0.00 | 71 | 1009.1 |
| 20260505183856 | 58 | 265 | 4.3 | 7.0 | 0.00 | 0.01 | 0.00 | 71 | 1009.0 |
| 20260505183555 | 58 | 262 | 4.3 | 7.8 | 0.00 | 0.01 | 0.00 | 70 | 1008.9 |
| 20260505183254 | 58 | 262 | 4.3 | 7.8 | 0.00 | 0.01 | 0.00 | 70 | 1009.0 |
| 20260505182953 | 58 | 249 | 5.2 | 7.8 | 0.00 | 0.01 | 0.00 | 70 | 1008.9 |
| 20260505182652 | 58 | 260 | 4.3 | 7.0 | 0.00 | 0.01 | 0.00 | 70 | 1008.8 |
| 20260505182351 | 59 | 254 | 4.3 | 6.1 | 0.00 | 0.01 | 0.00 | 70 | 1008.7 |
| 20260505182050 | 59 | 243 | 2.6 | 5.2 | 0.00 | 0.01 | 0.00 | 69 | 1008.7 |
| 20260505181749 | 59 | 256 | 2.6 | 4.3 | 0.00 | 0.01 | 0.00 | 68 | 1008.6 |
| 20260505181449 | 59 | 263 | 2.6 | 5.2 | 0.00 | 0.01 | 0.00 | 68 | 1008.5 |
| 20260505181147 | 59 | 251 | 2.6 | 6.1 | 0.00 | 0.01 | 0.00 | 68 | 1008.4 |
| 20260505180846 | 59 | 270 | 3.5 | 6.1 | 0.00 | 0.01 | 0.00 | 69 | 1008.4 |
| 20260505180546 | 59 | 270 | 4.3 | 6.1 | 0.00 | 0.01 | 0.00 | 68 | 1008.4 |
| 20260505180245 | 60 | 260 | 2.6 | 4.3 | 0.00 | 0.01 | 0.00 | 66 | 1008.2 |
| 20260505175944 | 60 | 345 | 0.9 | 1.7 | 0.00 | 0.01 | 0.00 | 64 | 1008.1 |
| 20260505175643 | 60 | 338 | 0.0 | 1.7 | 0.00 | 0.01 | 0.00 | 63 | 1008.0 |
| 20260505175342 | 60 | 257 | 0.0 | 1.7 | 0.01 | 0.01 | 0.00 | 65 | 1008.0 |
| 20260505175041 | 60 | 224 | 0.9 | 2.6 | 0.01 | 0.01 | 0.00 | 64 | 1008.0 |
| 20260505174740 | 60 | 170 | 0.0 | 3.5 | 0.01 | 0.01 | 0.00 | 64 | 1008.0 |
| 20260505174440 | 60 | 51 | 1.7 | 5.2 | 0.01 | 0.01 | 0.00 | 63 | 1007.9 |
| 20260505174139 | 60 | 70 | 2.6 | 5.2 | 0.01 | 0.01 | 0.00 | 63 | 1007.9 |
| 20260505173838 | 60 | 25 | 2.6 | 5.2 | 0.01 | 0.01 | 0.00 | 62 | 1007.9 |
| 20260505173537 | 60 | 25 | 2.6 | 5.2 | 0.01 | 0.01 | 0.00 | 62 | 1008.1 |
| 20260505173236 | 60 | 21 | 1.7 | 5.2 | 0.01 | 0.01 | 0.00 | 64 | 1008.1 |
| 20260505172935 | 60 | 42 | 1.7 | 5.2 | 0.01 | 0.01 | 0.00 | 65 | 1008.0 |
| 20260505172634 | 60 | 43 | 2.6 | 5.2 | 0.01 | 0.01 | 0.00 | 66 | 1007.9 |
| 20260505172333 | 60 | 35 | 2.6 | 6.1 | 0.01 | 0.01 | 0.00 | 65 | 1008.0 |
| 20260505172032 | 60 | 347 | 2.6 | 6.1 | 0.01 | 0.01 | 0.00 | 66 | 1008.0 |
| 20260505171731 | 60 | 322 | 4.3 | 6.1 | 0.01 | 0.01 | 0.00 | 64 | 1008.1 |
| 20260505171430 | 60 | 11 | 1.7 | 6.1 | 0.01 | 0.01 | 0.00 | 62 | 1008.1 |
| 20260505171129 | 60 | 321 | 3.5 | 6.1 | 0.01 | 0.01 | 0.00 | 61 | 1008.2 |
| 20260505170828 | 60 | 306 | 3.5 | 6.1 | 0.01 | 0.01 | 0.00 | 61 | 1008.3 |
| 20260505170528 | 61 | 307 | 2.6 | 6.1 | 0.01 | 0.01 | 0.00 | 61 | 1008.4 |
| 20260505170227 | 61 | 304 | 2.6 | 6.1 | 0.00 | 0.00 | 0.00 | 61 | 1008.4 |
| 20260505165926 | 61 | 312 | 3.5 | 6.1 | 0.00 | 0.00 | 0.00 | 60 | 1008.3 |
| 20260505165625 | 61 | 308 | 2.6 | 7.8 | 0.00 | 0.00 | 0.00 | 61 | 1008.3 |
| 20260505165324 | 61 | 293 | 3.5 | 7.8 | 0.00 | 0.00 | 0.00 | 60 | 1008.5 |
| 20260505165023 | 61 | 302 | 3.5 | 10.4 | 0.00 | 0.00 | 0.00 | 60 | 1008.4 |
| 20260505164722 | 61 | 302 | 4.3 | 12.2 | 0.00 | 0.00 | 0.00 | 60 | 1008.5 |
| 20260505164421 | 61 | 301 | 5.2 | 12.2 | 0.00 | 0.00 | 0.00 | 59 | 1008.6 |
| 20260505164120 | 61 | 303 | 6.1 | 12.2 | 0.00 | 0.00 | 0.00 | 59 | 1008.5 |
| 20260505163819 | 61 | 285 | 6.1 | 11.3 | 0.00 | 0.00 | 0.00 | 57 | 1008.5 |
| 20260505163519 | 61 | 281 | 5.2 | 11.3 | 0.00 | 0.00 | 0.00 | 57 | 1008.5 |
| 20260505163217 | 61 | 280 | 5.2 | 11.3 | 0.00 | 0.00 | 0.00 | 58 | 1008.5 |
| 20260505162917 | 61 | 257 | 7.0 | 11.3 | 0.00 | 0.00 | 0.00 | 59 | 1008.5 |
| 20260505162616 | 61 | 256 | 6.1 | 10.4 | 0.00 | 0.00 | 0.00 | 60 | 1008.7 |
| 20260505162315 | 61 | 275 | 5.2 | 10.4 | 0.00 | 0.00 | 0.00 | 60 | 1008.6 |
| 20260505162014 | 62 | 296 | 5.2 | 10.4 | 0.00 | 0.00 | 0.00 | 58 | 1008.6 |
| 20260505161713 | 62 | 302 | 4.3 | 8.7 | 0.00 | 0.00 | 0.00 | 58 | 1008.5 |
| 20260505161412 | 62 | 311 | 3.5 | 8.7 | 0.00 | 0.00 | 0.00 | 57 | 1008.4 |
| 20260505161111 | 62 | 300 | 4.3 | 8.7 | 0.00 | 0.00 | 0.00 | 57 | 1008.5 |
| 20260505160811 | 62 | 308 | 3.5 | 9.6 | 0.00 | 0.00 | 0.00 | 56 | 1008.4 |
| 20260505160510 | 62 | 315 | 5.2 | 9.6 | 0.00 | 0.00 | 0.00 | 56 | 1008.3 |
| 20260505160209 | 62 | 307 | 4.3 | 9.6 | 0.00 | 0.00 | 0.00 | 55 | 1008.3 |
| 20260505153159 | 63 | 311 | 7.0 | 13.0 | 0.00 | 0.00 | 0.00 | 54 | 1008.2 |
| 20260505152858 | 64 | 304 | 6.1 | 12.2 | 0.00 | 0.00 | 0.00 | 53 | 1008.3 |
| 20260505152557 | 64 | 307 | 6.1 | 12.2 | 0.00 | 0.00 | 0.00 | 53 | 1008.2 |
| 20260505152257 | 64 | 307 | 7.0 | 12.2 | 0.00 | 0.00 | 0.00 | 51 | 1008.3 |
| 20260505151956 | 65 | 286 | 4.3 | 11.3 | 0.00 | 0.00 | 0.00 | 52 | 1008.4 |
| 20260505151655 | 64 | 275 | 5.2 | 11.3 | 0.00 | 0.00 | 0.00 | 53 | 1008.3 |
| 20260505151354 | 64 | 254 | 6.1 | 11.3 | 0.00 | 0.00 | 0.00 | 54 | 1008.3 |
| 20260505151053 | 64 | 254 | 6.1 | 10.4 | 0.00 | 0.00 | 0.00 | 53 | 1008.3 |
| 20260505150752 | 64 | 288 | 4.3 | 9.6 | 0.00 | 0.00 | 0.00 | 54 | 1008.4 |
| 20260505150451 | 64 | 250 | 5.2 | 9.6 | 0.00 | 0.00 | 0.00 | 55 | 1008.3 |
| 20260505150150 | 63 | 268 | 5.2 | 9.6 | 0.00 | 0.00 | 0.00 | 55 | 1008.3 |
| 20260505140433 | 63 | 306 | 5.2 | 11.3 | 0.00 | 0.00 | 0.00 | 63 | 1008.5 |
| 20260505140132 | 63 | 304 | 5.2 | 10.4 | 0.00 | 0.00 | 0.00 | 62 | 1008.6 |